When you browse on this site, cookies collect data to enhance your experience and personalize the content and advertising you see.
Visit our Privacy Policy to learn more. By continuing to use the site, you agree to this use of cookies and data.
  • In Lithuania
  • List of Countries
  • For 7 days
  • Water Temperature
  • Satellite Maps
  • Weather Map
  • Weather Widgets
  • user-avatar
    Login

    Hourly Weather Mérida

    Today, 25 June, Tuesday

    Time Temperature Precipitation Wind Pressure Humidity
    00:00 +15°C° 0 mm 1 mps 593 mmHg 89%
    01:00 +15°C° 0 mm 1 mps 593 mmHg 91%
    02:00 +15°C° 0.4 mm 1 mps 593 mmHg 92%
    03:00 +15°C° 0.4 mm 1 mps 593 mmHg 93%
    04:00 +15°C° 0.4 mm 1 mps 593 mmHg 94%
    05:00 +16°C° 0.2 mm 1 mps 593 mmHg 93%
    06:00 +15°C° 0.2 mm 0 mps 594 mmHg 92%
    07:00 +15°C° 0.2 mm 0 mps 594 mmHg 91%
    08:00 +16°C° 0.2 mm 0 mps 595 mmHg 91%
    09:00 +18°C° 0.2 mm 1 mps 595 mmHg 91%
    10:00 +18°C° 0.2 mm 1 mps 595 mmHg 91%
    11:00 +18°C° 0.6 mm 1 mps 595 mmHg 91%
    12:00 +18°C° 0.6 mm 1 mps 595 mmHg 91%
    13:00 +19°C° 0.6 mm 1 mps 595 mmHg 91%
    14:00 +19°C° 0.5 mm 1 mps 595 mmHg 88%
    15:00 +19°C° 0.5 mm 1 mps 594 mmHg 85%
    16:00 +20°C° 0.5 mm 1 mps 594 mmHg 82%
    17:00 +18°C° 0.2 mm 1 mps 594 mmHg 84%
    18:00 +16°C° 0.2 mm 1 mps 593 mmHg 87%
    19:00 +14°C° 0.2 mm 1 mps 593 mmHg 89%
    20:00 +14°C° 0 mm 1 mps 593 mmHg 85%
    21:00 +14°C° 0 mm 2 mps 593 mmHg 80%
    22:00 +14°C° 0 mm 2 mps 593 mmHg 76%
    23:00 +14°C° 0 mm 2 mps 593 mmHg 78%

    Tomorrow, 26 June, Wednesday

    Time Temperature Precipitation Wind Pressure Humidity
    00:00 +14°C° 0 mm 2 mps 593 mmHg 80%
    01:00 +13°C° 0 mm 2 mps 592 mmHg 82%
    02:00 +14°C° 0 mm 2 mps 592 mmHg 83%
    03:00 +14°C° 0 mm 2 mps 592 mmHg 85%
    04:00 +14°C° 0 mm 2 mps 592 mmHg 86%
    05:00 +15°C° 0 mm 2 mps 593 mmHg 86%
    06:00 +15°C° 0 mm 2 mps 594 mmHg 85%
    07:00 +16°C° 0 mm 2 mps 594 mmHg 85%
    08:00 +18°C° 0 mm 2 mps 595 mmHg 77%
    09:00 +20°C° 0 mm 2 mps 596 mmHg 68%
    10:00 +21°C° 0 mm 3 mps 597 mmHg 60%
    11:00 +22°C° 0.2 mm 3 mps 596 mmHg 59%
    12:00 +22°C° 0.2 mm 3 mps 596 mmHg 58%
    13:00 +22°C° 0.2 mm 3 mps 596 mmHg 58%
    14:00 +21°C° 0.3 mm 2 mps 595 mmHg 61%
    15:00 +21°C° 0.3 mm 2 mps 594 mmHg 65%
    16:00 +20°C° 0.3 mm 2 mps 593 mmHg 68%
    17:00 +18°C° 0.1 mm 2 mps 593 mmHg 74%
    18:00 +16°C° 0.1 mm 2 mps 592 mmHg 81%
    19:00 +15°C° 0.1 mm 2 mps 591 mmHg 87%
    20:00 +14°C° 0 mm 2 mps 592 mmHg 77%
    21:00 +14°C° 0 mm 2 mps 592 mmHg 68%
    22:00 +12°C° 0 mm 3 mps 592 mmHg 58%
    23:00 +12°C° 0 mm 3 mps 592 mmHg 55%

    Day after tomorrow, 27 June, Thursday

    Time Temperature Precipitation Wind Pressure Humidity
    00:00 +12°C° 0 mm 3 mps 592 mmHg 53%
    01:00 +12°C° 0 mm 3 mps 591 mmHg 50%
    02:00 +11°C° 0 mm 3 mps 591 mmHg 52%
    03:00 +11°C° 0 mm 3 mps 591 mmHg 53%
    04:00 +11°C° 0 mm 3 mps 591 mmHg 55%
    05:00 +12°C° 0 mm 3 mps 592 mmHg 55%
    06:00 +13°C° 0 mm 3 mps 593 mmHg 54%
    07:00 +16°C° 0 mm 2 mps 593 mmHg 53%
    08:00 +17°C° 0 mm 2 mps 594 mmHg 51%
    09:00 +19°C° 0 mm 2 mps 595 mmHg 49%
    10:00 +21°C° 0 mm 2 mps 596 mmHg 47%
    11:00 +21°C° 0 mm 2 mps 596 mmHg 49%
    12:00 +23°C° 0 mm 2 mps 596 mmHg 51%
    13:00 +23°C° 0 mm 2 mps 595 mmHg 54%
    14:00 +21°C° 0.1 mm 2 mps 594 mmHg 62%
    15:00 +20°C° 0.1 mm 2 mps 594 mmHg 70%
    16:00 +20°C° 0.1 mm 2 mps 593 mmHg 78%
    17:00 +19°C° 0.1 mm 1 mps 592 mmHg 84%
    18:00 +18°C° 0.1 mm 1 mps 592 mmHg 90%
    19:00 +14°C° 0.1 mm 0 mps 591 mmHg 96%
    20:00 +15°C° 0 mm 1 mps 592 mmHg 91%
    21:00 +14°C° 0 mm 1 mps 592 mmHg 87%
    22:00 +14°C° 0 mm 2 mps 593 mmHg 83%
    23:00 +13°C° 0 mm 2 mps 592 mmHg 73%

    28 June, Friday

    Time Temperature Precipitation Wind Pressure Humidity
    00:00 +13°C° 0 mm 2 mps 592 mmHg 63%
    01:00 +11°C° 0 mm 3 mps 591 mmHg 53%
    02:00 +12°C° 0 mm 2 mps 591 mmHg 52%
    03:00 +12°C° 0 mm 2 mps 591 mmHg 50%
    04:00 +12°C° 0 mm 2 mps 591 mmHg 49%
    05:00 +13°C° 0 mm 2 mps 592 mmHg 53%
    06:00 +15°C° 0 mm 2 mps 593 mmHg 57%
    07:00 +16°C° 0 mm 2 mps 594 mmHg 60%
    08:00 +18°C° 0 mm 2 mps 595 mmHg 59%
    09:00 +20°C° 0 mm 2 mps 596 mmHg 58%
    10:00 +21°C° 0 mm 2 mps 597 mmHg 57%
    11:00 +23°C° 0 mm 2 mps 596 mmHg 58%
    12:00 +22°C° 0 mm 3 mps 596 mmHg 59%
    13:00 +24°C° 0 mm 3 mps 596 mmHg 59%
    14:00 +23°C° 0.3 mm 2 mps 595 mmHg 65%
    15:00 +21°C° 0.3 mm 2 mps 594 mmHg 71%
    16:00 +20°C° 0.3 mm 2 mps 593 mmHg 76%
    17:00 +19°C° 0.3 mm 2 mps 593 mmHg 82%
    18:00 +18°C° 0.3 mm 1 mps 593 mmHg 89%
    19:00 +16°C° 0.3 mm 1 mps 592 mmHg 95%
    20:00 +16°C° 0.3 mm 1 mps 593 mmHg 94%
    21:00 +15°C° 0.3 mm 2 mps 593 mmHg 94%
    22:00 +15°C° 0.3 mm 2 mps 594 mmHg 93%
    23:00 +15°C° 0.2 mm 2 mps 593 mmHg 92%

    29 June, Saturday

    Time Temperature Precipitation Wind Pressure Humidity
    00:00 +15°C° 0.2 mm 2 mps 593 mmHg 91%
    01:00 +15°C° 0.2 mm 2 mps 592 mmHg 91%
    02:00 +15°C° 0.3 mm 2 mps 592 mmHg 91%
    03:00 +15°C° 0.3 mm 2 mps 592 mmHg 92%
    04:00 +15°C° 0.3 mm 2 mps 592 mmHg 92%
    05:00 +15°C° 2.1 mm 2 mps 593 mmHg 92%
    06:00 +15°C° 2.1 mm 2 mps 594 mmHg 92%
    07:00 +16°C° 2.1 mm 2 mps 594 mmHg 92%
    08:00 +16°C° 0.8 mm 2 mps 595 mmHg 91%
    09:00 +17°C° 0.8 mm 2 mps 595 mmHg 89%
    10:00 +17°C° 0.8 mm 2 mps 596 mmHg 87%
    11:00 +18°C° 0.6 mm 2 mps 595 mmHg 87%
    12:00 +18°C° 0.6 mm 2 mps 595 mmHg 86%
    13:00 +18°C° 0.6 mm 2 mps 594 mmHg 86%
    14:00 +18°C° 0.4 mm 2 mps 594 mmHg 84%
    15:00 +18°C° 0.4 mm 2 mps 593 mmHg 82%
    16:00 +19°C° 0.4 mm 2 mps 593 mmHg 80%
    17:00 +17°C° 0.2 mm 2 mps 593 mmHg 82%
    18:00 +16°C° 0.2 mm 2 mps 592 mmHg 84%
    19:00 +15°C° 0.2 mm 2 mps 592 mmHg 86%
    20:00 +14°C° 0.1 mm 2 mps 592 mmHg 82%
    21:00 +13°C° 0.1 mm 3 mps 593 mmHg 78%
    22:00 +13°C° 0.1 mm 3 mps 593 mmHg 74%
    23:00 +12°C° 0 mm 3 mps 592 mmHg 75%

    30 June, Sunday

    Time Temperature Precipitation Wind Pressure Humidity
    00:00 +12°C° 0 mm 3 mps 592 mmHg 76%
    01:00 +12°C° 0 mm 3 mps 592 mmHg 77%
    02:00 +12°C° 0 mm 3 mps 592 mmHg 78%
    03:00 +12°C° 0 mm 3 mps 592 mmHg 79%
    04:00 +12°C° 0 mm 3 mps 592 mmHg 80%
    05:00 +13°C° 0 mm 3 mps 593 mmHg 79%
    06:00 +16°C° 0 mm 2 mps 593 mmHg 77%
    07:00 +17°C° 0 mm 2 mps 594 mmHg 75%
    08:00 +18°C° 0 mm 2 mps 595 mmHg 70%
    09:00 +19°C° 0 mm 2 mps 596 mmHg 65%
    10:00 +21°C° 0 mm 2 mps 597 mmHg 59%
    11:00 +21°C° 0.1 mm 3 mps 596 mmHg 59%
    12:00 +21°C° 0.1 mm 3 mps 596 mmHg 60%
    13:00 +22°C° 0.1 mm 3 mps 595 mmHg 60%
    14:00 +21°C° 0.4 mm 2 mps 595 mmHg 66%
    15:00 +20°C° 0.4 mm 2 mps 594 mmHg 73%
    16:00 +19°C° 0.4 mm 2 mps 593 mmHg 79%
    17:00 +18°C° 0.2 mm 2 mps 593 mmHg 83%
    18:00 +16°C° 0.2 mm 2 mps 592 mmHg 86%
    19:00 +15°C° 0.2 mm 2 mps 592 mmHg 89%
    20:00 +15°C° 0 mm 2 mps 592 mmHg 87%
    21:00 +14°C° 0 mm 3 mps 593 mmHg 85%
    22:00 +13°C° 0 mm 3 mps 593 mmHg 84%
    23:00 +13°C° 0 mm 3 mps 593 mmHg 84%
    Show more